Camarillo, California, United States (93010)
Lat: 34.22N, Lon: 119.04W
Wx Zone: CAZ040
Local Info
Past Weather Observations for Today

NOTE: This archive is for the closest National Weather Service station to Camarillo. Information may differ from the station used for current weather conditions.

Click here for Long-term Archive

Time Weather Temperature Dewpoint Humidity Pressure Winds Precip Visibility
19:55
Clear
61°F / 16°C 55°F / 13°C 83% 30.04 in
(1017 mb)
NNW 3.5 mph
(NNW 6 kph)
- 9SM
18:55
Clear
63°F / 17°C 55°F / 13°C 77% 30.01 in
(1016 mb)
W 3.5 mph
(W 6 kph)
- 10SM
17:55
Clear
66°F / 19°C 57°F / 14°C 73% 30.01 in
(1016 mb)
S 6.9 mph
(S 11 kph)
- 9SM
16:55
Clear
70°F / 21°C 57°F / 14°C 64% 30.01 in
(1016 mb)
SW 6.9 mph
(SW 11 kph)
- 10SM
15:55
Clear
70°F / 21°C 55°F / 13°C 60% 30.01 in
(1016 mb)
SW 11.5 mph
(SW 19 kph)
- 10SM
14:55
Clear
72°F / 22°C 57°F / 14°C 61% 30.01 in
(1016 mb)
SW 11.5 mph
(SW 19 kph)
- 10SM
13:55
Clear
72°F / 22°C 57°F / 14°C 61% 30.01 in
(1016 mb)
SSW 11.5 mph
(SSW 19 kph)
- 10SM
12:55
Clear
72°F / 22°C 57°F / 14°C 61% 30.04 in
(1017 mb)
SW 11.5 mph
(SW 19 kph)
- 10SM
11:55
Clear
72°F / 22°C 57°F / 14°C 61% 30.06 in
(1018 mb)
SW 10.4 mph
(SW 17 kph)
- 10SM
10:55
Clear
70°F / 21°C 57°F / 14°C 64% 30.06 in
(1018 mb)
SSW 8.1 mph
(SSW 13 kph)
- 10SM
09:55
Clear
72°F / 22°C 57°F / 14°C 61% 30.09 in
(1019 mb)
SSW 8.1 mph
(SSW 13 kph)
- 10SM
08:55
Clear
66°F / 19°C 55°F / 13°C 68% 30.06 in
(1018 mb)
NW 5.8 mph
(NW 9 kph)
- 9SM
07:55
Clear
61°F / 16°C 52°F / 11°C 72% 30.06 in
(1018 mb)
Calm - 10SM
06:55
Clear
55°F / 13°C 46°F / 8°C 72% 30.06 in
(1018 mb)
Calm - 10SM
05:55
Partly Cloudy
52°F / 11°C 45°F / 7°C 77% 30.06 in
(1018 mb)
E 4.6 mph
(E 7 kph)
- 10SM
05:48
Partly Cloudy
52°F / 11°C 46°F / 8°C 82% 30.06 in
(1018 mb)
NE 4.6 mph
(NE 7 kph)
- 10SM
05:28
Overcast
Fog And Mist
52°F / 11°C 48°F / 9°C 88% 30.06 in
(1018 mb)
ENE 3.5 mph
(ENE 6 kph)
- 4SM
05:26
Overcast
Fog And Mist
52°F / 11°C 48°F / 9°C 88% 30.06 in
(1018 mb)
ENE 3.5 mph
(ENE 6 kph)
- 1 3/4SM
05:11
Overcast
Fog And Mist
50°F / 10°C 46°F / 8°C 88% 30.06 in
(1018 mb)
Calm - 3/4SM
04:55
Mostly Cloudy
50°F / 10°C 46°F / 8°C 88% 30.04 in
(1017 mb)
Calm - 10SM
04:29
Partly Cloudy
50°F / 10°C 46°F / 8°C 88% 30.04 in
(1017 mb)
Calm - 10SM
03:55
Mostly Cloudy
52°F / 11°C 48°F / 9°C 88% 30.04 in
(1017 mb)
NE 5.8 mph
(NE 9 kph)
- 10SM
03:45
Mostly Cloudy
Fog And Mist
52°F / 11°C 48°F / 9°C 88% 30.04 in
(1017 mb)
NE 3.5 mph
(NE 6 kph)
- 4SM
03:42
Mostly Cloudy
Fog And Mist
52°F / 11°C 48°F / 9°C 88% 30.04 in
(1017 mb)
ENE 3.5 mph
(ENE 6 kph)
- 1 1/2SM
03:36
Partly Cloudy
Fog And Mist
52°F / 11°C 48°F / 9°C 88% 30.04 in
(1017 mb)
E 4.6 mph
(E 7 kph)
- 1 3/4SM
02:55
Partly Cloudy
52°F / 11°C 48°F / 9°C 88% 30.04 in
(1017 mb)
Calm - 8SM
01:55
Clear
54°F / 12°C 48°F / 9°C 82% 30.04 in
(1017 mb)
Calm - 10SM
00:55
Clear
54°F / 12°C 48°F / 9°C 82% 30.06 in
(1018 mb)
Calm - 10SM
Time Weather Temperature Dewpoint Humidity Pressure Winds Precip Visibility


Weather for websites

WeatherForYou.com, LLC is not responsible for any damages or problems caused by this service. Current weather conditions are obtained from the closest station including government and personal stations which may have varying degrees of accuracy. Weather forecasts are derived from the NOAA NDFD. Like all things, this site belongs to Jesus Christ... He just trusts me to maintain it. If you have any questions or comments email webmaster@weatherforyou.com

Copyright © 2015, WeatherForYou.com LLC. All rights reserved.